AFL1498 UUEE-URMG

Flight info

Callsign AFL1498
Flight time 2h 33m
Altitude 35000
Route K0822F350 TOGMO3J TOGMO M56 ABAGI B105 NIMTA/K0829F340 B105 NATIT DCT MOLED N50 SL DCT SUBED N50 LIDUS G242 ZG DCT ITAKA DCT OBBUD DCT AMKOL DCT REMKA REMKA1X
Aircraft A320/M-SDIE2E3FGHJ1RWY/LB1U1

Departure

Time 2026-05-04 13:35
Airport Sheremetyevo International Airport (UUEE)

Arrival

Time 2026-05-04 16:08
Airport Akhmat Kadyrov Grozny International Airport (URMG)
Time Latitude Longitude Altitude Speed Heading
2026-05-04 13:06 55.97927 37.42132 640 ft 0 kts 255°
2026-05-04 13:28 55.97923 37.42109 646 ft 5 kts 255°
2026-05-04 13:28 55.97897 37.42049 641 ft 7 kts 202°
2026-05-04 13:29 55.97852 37.42060 639 ft 6 kts 164°
2026-05-04 13:29 55.97818 37.42077 642 ft 4 kts 164°
2026-05-04 13:29 55.97794 37.42089 643 ft 3 kts 165°
2026-05-04 13:29 55.97770 37.42100 639 ft 6 kts 165°
2026-05-04 13:30 55.97712 37.42127 639 ft 11 kts 162°
2026-05-04 13:30 55.97691 37.42237 647 ft 9 kts 74°
2026-05-04 13:30 55.97708 37.42340 645 ft 8 kts 74°
2026-05-04 13:30 55.97722 37.42434 647 ft 8 kts 76°
2026-05-04 13:31 55.97736 37.42530 642 ft 8 kts 75°
2026-05-04 13:31 55.97750 37.42621 642 ft 7 kts 75°
2026-05-04 13:31 55.97762 37.42709 645 ft 7 kts 76°
2026-05-04 13:31 55.97749 37.42786 640 ft 7 kts 146°
2026-05-04 13:32 55.97701 37.42810 641 ft 8 kts 166°
2026-05-04 13:32 55.97641 37.42836 638 ft 10 kts 174°
2026-05-04 13:32 55.97595 37.42775 641 ft 8 kts 250°
2026-05-04 13:32 55.97593 37.42755 641 ft 0 kts 255°
2026-05-04 13:34 55.97588 37.42725 645 ft 16 kts 255°
2026-05-04 13:34 55.97490 37.42068 638 ft 90 kts 255°
2026-05-04 13:34 55.97275 37.40634 641 ft 146 kts 255°
2026-05-04 13:34 55.96990 37.38697 960 ft 166 kts 255°
2026-05-04 13:35 55.96684 37.36715 1779 ft 164 kts 257°
2026-05-04 13:35 55.96065 37.32859 3078 ft 160 kts 255°
2026-05-04 13:35 55.95759 37.30951 3645 ft 160 kts 256°
2026-05-04 13:36 55.95457 37.29016 4092 ft 169 kts 256°
2026-05-04 13:36 55.95239 37.27619 4277 ft 184 kts 255°
2026-05-04 13:36 55.94742 37.24444 4606 ft 212 kts 256°
2026-05-04 13:36 55.94334 37.21867 4926 ft 232 kts 255°
2026-05-04 13:37 55.93875 37.18969 5312 ft 253 kts 255°
2026-05-04 13:37 55.93188 37.16042 6042 ft 261 kts 236°
2026-05-04 13:37 55.91891 37.13726 6838 ft 267 kts 224°
2026-05-04 13:37 55.90936 37.12320 7349 ft 270 kts 223°
2026-05-04 13:38 55.88960 37.09509 8392 ft 274 kts 222°
2026-05-04 13:38 55.87455 37.07384 9168 ft 278 kts 222°
2026-05-04 13:38 55.85926 37.05239 9915 ft 282 kts 222°
2026-05-04 13:38 55.84346 37.03021 10277 ft 300 kts 222°
2026-05-04 13:39 55.82652 37.00621 10464 ft 323 kts 222°
2026-05-04 13:39 55.80845 36.98045 10775 ft 339 kts 222°
2026-05-04 13:39 55.78992 36.95393 11396 ft 344 kts 222°
2026-05-04 13:39 55.76954 36.93128 12045 ft 353 kts 204°
2026-05-04 13:40 55.75369 36.92383 12475 ft 360 kts 190°
2026-05-04 13:40 55.71982 36.92821 13353 ft 370 kts 172°
2026-05-04 13:40 55.66969 36.94516 14572 ft 376 kts 172°
2026-05-04 13:41 55.64389 36.95395 15153 ft 379 kts 172°
2026-05-04 13:41 55.61804 36.96276 15722 ft 382 kts 171°
2026-05-04 13:41 55.59249 36.97697 16300 ft 388 kts 156°
2026-05-04 13:42 55.55387 37.04385 17401 ft 402 kts 119°
2026-05-04 13:42 55.54085 37.08780 17943 ft 405 kts 118°
2026-05-04 13:42 55.52788 37.13201 18448 ft 407 kts 118°
2026-05-04 13:42 55.51477 37.17667 18914 ft 410 kts 118°
2026-05-04 13:43 55.50157 37.22137 19369 ft 413 kts 118°
2026-05-04 13:43 55.48823 37.26625 19835 ft 415 kts 118°
2026-05-04 13:43 55.47471 37.31160 20324 ft 418 kts 118°
2026-05-04 13:43 55.46110 37.35700 20797 ft 420 kts 118°
2026-05-04 13:44 55.44738 37.40262 21252 ft 423 kts 118°
2026-05-04 13:44 55.43356 37.44851 21702 ft 425 kts 118°
2026-05-04 13:44 55.41970 37.49461 22142 ft 427 kts 118°
2026-05-04 13:44 55.40573 37.54094 22580 ft 430 kts 118°
2026-05-04 13:45 55.39163 37.58757 22997 ft 432 kts 118°
2026-05-04 13:45 55.37748 37.63441 23403 ft 435 kts 118°
2026-05-04 13:45 55.36341 37.68096 23763 ft 437 kts 118°
2026-05-04 13:45 55.34890 37.72867 24119 ft 440 kts 118°
2026-05-04 13:46 55.33438 37.77609 24442 ft 442 kts 118°
2026-05-04 13:46 55.31977 37.82386 24766 ft 444 kts 118°
2026-05-04 13:46 55.30513 37.87176 25095 ft 446 kts 118°
2026-05-04 13:46 55.29036 37.91988 25415 ft 448 kts 118°
2026-05-04 13:47 55.27559 37.96799 25737 ft 450 kts 118°
2026-05-04 13:47 55.26070 38.01643 26075 ft 451 kts 118°
2026-05-04 13:47 55.24575 38.06499 26433 ft 452 kts 118°
2026-05-04 13:47 55.23074 38.11351 26760 ft 454 kts 118°
2026-05-04 13:48 55.21566 38.16213 27064 ft 456 kts 118°
2026-05-04 13:48 55.20045 38.21109 27378 ft 458 kts 118°
2026-05-04 13:48 55.18518 38.26006 27692 ft 459 kts 118°
2026-05-04 13:48 55.16991 38.30901 27980 ft 461 kts 117°
2026-05-04 13:49 55.15971 38.34169 28161 ft 462 kts 117°
2026-05-04 13:49 55.14425 38.39115 28447 ft 463 kts 117°
2026-05-04 13:49 55.12374 38.45676 28824 ft 465 kts 117°
2026-05-04 13:49 55.10824 38.50630 29154 ft 465 kts 117°
2026-05-04 13:50 55.09265 38.55593 29446 ft 466 kts 117°
2026-05-04 13:50 55.07702 38.60554 29717 ft 468 kts 117°
2026-05-04 13:50 55.06128 38.65524 30025 ft 468 kts 117°
2026-05-04 13:50 55.05062 38.68882 30241 ft 467 kts 117°
2026-05-04 13:51 55.03491 38.73821 30537 ft 467 kts 117°
2026-05-04 13:51 55.01910 38.78770 30813 ft 466 kts 117°
2026-05-04 13:51 55.00334 38.83698 31105 ft 466 kts 117°
2026-05-04 13:51 54.98757 38.88623 31388 ft 466 kts 117°
2026-05-04 13:52 54.95604 38.98471 31998 ft 464 kts 116°
2026-05-04 13:52 54.94030 39.03376 32303 ft 464 kts 116°
2026-05-04 13:52 54.92459 39.08265 32582 ft 463 kts 116°
2026-05-04 13:53 54.90886 39.13155 32848 ft 463 kts 116°
2026-05-04 13:53 54.89311 39.18041 33106 ft 463 kts 116°
2026-05-04 13:53 54.87732 39.22919 33390 ft 463 kts 116°
2026-05-04 13:54 54.84569 39.32649 33933 ft 463 kts 116°
2026-05-04 13:54 54.82983 39.37514 34179 ft 462 kts 116°
2026-05-04 13:54 54.79818 39.47191 34665 ft 461 kts 117°
2026-05-04 13:55 54.78232 39.52032 34839 ft 462 kts 117°
2026-05-04 13:55 54.73463 39.66516 34891 ft 461 kts 117°
2026-05-04 13:56 54.70276 39.76152 34888 ft 461 kts 117°
2026-05-04 13:57 54.65493 39.90553 34895 ft 460 kts 117°
2026-05-04 13:58 54.59093 40.09663 34887 ft 460 kts 117°
2026-05-04 13:58 54.54280 40.23954 34886 ft 459 kts 118°
2026-05-04 13:59 54.51070 40.33462 34885 ft 459 kts 118°
2026-05-04 14:00 54.46234 40.47682 34886 ft 459 kts 118°
2026-05-04 14:00 54.41387 40.61813 34888 ft 460 kts 118°
2026-05-04 14:01 54.38136 40.71252 34895 ft 460 kts 118°
2026-05-04 14:02 54.33251 40.85398 34900 ft 460 kts 118°
2026-05-04 14:02 54.29987 40.94816 34897 ft 460 kts 118°
2026-05-04 14:03 54.26716 41.04207 34898 ft 460 kts 118°
2026-05-04 14:03 54.23430 41.13593 34901 ft 460 kts 119°
2026-05-04 14:04 54.18484 41.27640 34905 ft 460 kts 119°
2026-05-04 14:04 54.15179 41.36977 34901 ft 460 kts 119°
2026-05-04 14:05 54.10222 41.50977 34909 ft 460 kts 119°
2026-05-04 14:06 54.06907 41.60283 34899 ft 460 kts 120°
2026-05-04 14:06 54.03580 41.69582 34893 ft 460 kts 120°
2026-05-04 14:07 54.00236 41.78867 34896 ft 460 kts 120°
2026-05-04 14:07 53.96893 41.88140 34900 ft 460 kts 120°
2026-05-04 14:08 53.93545 41.97404 34900 ft 460 kts 120°
2026-05-04 14:08 53.90183 42.06657 34896 ft 461 kts 120°
2026-05-04 14:09 53.85116 42.20517 34896 ft 462 kts 121°
2026-05-04 14:10 53.80032 42.34370 34891 ft 462 kts 121°
2026-05-04 14:10 53.76655 42.43537 34896 ft 463 kts 121°
2026-05-04 14:11 53.73244 42.52764 34900 ft 463 kts 121°
2026-05-04 14:11 53.67479 42.65793 34905 ft 465 kts 138°
2026-05-04 14:12 53.62092 42.71738 34909 ft 464 kts 157°
2026-05-04 14:13 53.53190 42.78163 34913 ft 465 kts 158°
2026-05-04 14:13 53.47241 42.82462 34915 ft 466 kts 158°
2026-05-04 14:14 53.41281 42.86740 34919 ft 466 kts 158°
2026-05-04 14:14 53.32345 42.93142 34930 ft 466 kts 158°
2026-05-04 14:15 53.20421 43.01625 34921 ft 466 kts 158°
2026-05-04 14:16 53.11477 43.07951 34936 ft 466 kts 157°
2026-05-04 14:17 53.02608 43.14583 34943 ft 466 kts 156°
2026-05-04 14:18 52.93797 43.21175 34941 ft 465 kts 156°
2026-05-04 14:19 52.81955 43.29867 34956 ft 465 kts 156°
2026-05-04 14:19 52.76039 43.34202 34963 ft 465 kts 156°
2026-05-04 14:20 52.70131 43.38533 34958 ft 464 kts 156°
2026-05-04 14:20 52.64228 43.42837 34974 ft 464 kts 156°
2026-05-04 14:21 52.55378 43.49264 34967 ft 463 kts 156°
2026-05-04 14:21 52.49490 43.53523 34971 ft 462 kts 157°
2026-05-04 14:22 52.43597 43.57770 34973 ft 462 kts 157°
2026-05-04 14:22 52.37716 43.62000 34964 ft 462 kts 157°
2026-05-04 14:23 52.28891 43.68332 34969 ft 461 kts 157°
2026-05-04 14:24 52.23011 43.72524 34967 ft 461 kts 157°
2026-05-04 14:24 52.17138 43.76710 34971 ft 460 kts 157°
2026-05-04 14:25 52.11273 43.80871 34979 ft 460 kts 157°
2026-05-04 14:25 52.02477 43.87094 34980 ft 459 kts 157°
2026-05-04 14:26 51.96658 43.91202 34982 ft 459 kts 157°
2026-05-04 14:26 51.90767 43.95340 34981 ft 458 kts 158°
2026-05-04 14:27 51.84958 43.99413 34985 ft 458 kts 158°
2026-05-04 14:27 51.79114 44.03499 34975 ft 458 kts 158°
2026-05-04 14:28 51.73269 44.07561 34972 ft 458 kts 158°
2026-05-04 14:28 51.67417 44.11625 34980 ft 457 kts 158°
2026-05-04 14:29 51.55725 44.19715 34983 ft 457 kts 158°
2026-05-04 14:30 51.49883 44.23739 34984 ft 457 kts 158°
2026-05-04 14:31 51.41109 44.29774 35269 ft 457 kts 158°
2026-05-04 14:31 51.35261 44.33777 35726 ft 457 kts 158°
2026-05-04 14:32 51.29419 44.37764 35979 ft 457 kts 158°
2026-05-04 14:32 51.23613 44.41707 35986 ft 456 kts 158°
2026-05-04 14:33 51.17749 44.45689 35993 ft 455 kts 159°
2026-05-04 14:33 51.11708 44.48271 35994 ft 452 kts 170°
2026-05-04 14:34 51.05530 44.50212 35997 ft 453 kts 170°
2026-05-04 14:34 50.99358 44.52163 35997 ft 453 kts 170°
2026-05-04 14:35 50.93180 44.54119 35997 ft 452 kts 171°
2026-05-04 14:35 50.87004 44.56061 36002 ft 452 kts 171°
2026-05-04 14:36 50.80828 44.57986 36000 ft 452 kts 171°
2026-05-04 14:36 50.74655 44.59914 36004 ft 452 kts 171°
2026-05-04 14:37 50.68484 44.61838 36007 ft 452 kts 171°
2026-05-04 14:37 50.62307 44.63760 36012 ft 452 kts 171°
2026-05-04 14:38 50.57136 44.65370 36010 ft 452 kts 171°
2026-05-04 14:38 50.50965 44.67283 36011 ft 452 kts 171°
2026-05-04 14:39 50.44799 44.69188 36003 ft 452 kts 171°
2026-05-04 14:39 50.38666 44.71069 36011 ft 451 kts 171°
2026-05-04 14:40 50.29417 44.73891 36016 ft 451 kts 171°
2026-05-04 14:40 50.23263 44.75782 36017 ft 451 kts 171°
2026-05-04 14:41 50.17096 44.77657 36015 ft 451 kts 172°
2026-05-04 14:42 50.04790 44.81402 36017 ft 450 kts 171°
2026-05-04 14:42 49.98646 44.83272 36023 ft 450 kts 172°
2026-05-04 14:43 49.92506 44.85121 36023 ft 449 kts 172°
2026-05-04 14:43 49.86369 44.86961 36023 ft 449 kts 172°
2026-05-04 14:44 49.80228 44.88810 36024 ft 449 kts 172°
2026-05-04 14:44 49.74091 44.90652 36024 ft 449 kts 172°
2026-05-04 14:45 49.67956 44.92481 36025 ft 449 kts 172°
2026-05-04 14:45 49.61824 44.94304 36025 ft 448 kts 172°
2026-05-04 14:46 49.55706 44.96129 36031 ft 448 kts 172°
2026-05-04 14:46 49.49593 44.97945 36029 ft 447 kts 172°
2026-05-04 14:47 49.43487 44.99741 36030 ft 447 kts 172°
2026-05-04 14:47 49.37415 45.01523 36016 ft 447 kts 173°
2026-05-04 14:48 49.31316 45.03316 36024 ft 446 kts 173°
2026-05-04 14:48 49.25224 45.05111 36030 ft 445 kts 173°
2026-05-04 14:49 49.19138 45.06894 36028 ft 445 kts 173°
2026-05-04 14:49 49.13060 45.08662 36033 ft 445 kts 173°
2026-05-04 14:50 49.06977 45.10429 36021 ft 444 kts 173°
2026-05-04 14:50 49.00910 45.12192 36026 ft 444 kts 173°
2026-05-04 14:51 48.94850 45.13951 36030 ft 443 kts 172°
2026-05-04 14:51 48.88794 45.15706 36026 ft 443 kts 172°
2026-05-04 14:52 48.82746 45.17455 36018 ft 442 kts 172°
2026-05-04 14:52 48.76700 45.19199 36022 ft 442 kts 172°
2026-05-04 14:53 48.70649 45.20929 36017 ft 442 kts 172°
2026-05-04 14:53 48.64600 45.22654 36008 ft 442 kts 172°
2026-05-04 14:54 48.58552 45.24378 36015 ft 442 kts 172°
2026-05-04 14:54 48.52509 45.26094 36001 ft 442 kts 172°
2026-05-04 14:55 48.46459 45.27816 36004 ft 442 kts 172°
2026-05-04 14:55 48.40437 45.29759 36008 ft 445 kts 164°
2026-05-04 14:56 48.34807 45.33572 35999 ft 448 kts 156°
2026-05-04 14:56 48.29213 45.37701 36001 ft 448 kts 157°
2026-05-04 14:57 48.23585 45.41822 36010 ft 447 kts 156°
2026-05-04 14:57 48.18036 45.45869 36019 ft 446 kts 156°
2026-05-04 14:58 48.12467 45.49936 36021 ft 445 kts 156°
2026-05-04 14:58 48.06912 45.53979 36017 ft 443 kts 156°
2026-05-04 14:59 48.01369 45.57992 36019 ft 442 kts 156°
2026-05-04 15:00 47.93081 45.63994 36015 ft 441 kts 156°
2026-05-04 15:00 47.87566 45.67972 36009 ft 440 kts 156°
2026-05-04 15:01 47.79318 45.73918 36017 ft 438 kts 156°
2026-05-04 15:01 47.73836 45.77856 36020 ft 437 kts 156°
2026-05-04 15:02 47.68364 45.81768 36017 ft 436 kts 156°
2026-05-04 15:02 47.62901 45.85661 36006 ft 435 kts 156°
2026-05-04 15:03 47.57451 45.89540 36006 ft 434 kts 156°
2026-05-04 15:03 47.52046 45.93388 36003 ft 434 kts 156°
2026-05-04 15:04 47.46575 45.97279 36001 ft 434 kts 156°
2026-05-04 15:04 47.41169 46.01103 36000 ft 434 kts 156°
2026-05-04 15:05 47.35731 46.04947 35994 ft 433 kts 156°
2026-05-04 15:05 47.30290 46.08791 35992 ft 433 kts 156°
2026-05-04 15:06 47.24853 46.12627 35997 ft 433 kts 156°
2026-05-04 15:07 47.16695 46.18372 35991 ft 433 kts 156°
2026-05-04 15:07 47.11261 46.22192 35992 ft 433 kts 156°
2026-05-04 15:08 47.06042 46.26578 35991 ft 435 kts 142°
2026-05-04 15:08 47.02007 46.33199 35989 ft 439 kts 124°
2026-05-04 15:09 46.98736 46.40761 35986 ft 439 kts 124°
2026-05-04 15:09 46.95454 46.48296 35987 ft 439 kts 125°
2026-05-04 15:10 46.90520 46.59571 35985 ft 439 kts 125°
2026-05-04 15:11 46.85584 46.70829 35977 ft 438 kts 125°
2026-05-04 15:11 46.82291 46.78314 35972 ft 437 kts 125°
2026-05-04 15:12 46.79002 46.85778 35962 ft 437 kts 125°
2026-05-04 15:12 46.75700 46.93230 35955 ft 437 kts 125°
2026-05-04 15:13 46.72391 47.00674 35954 ft 437 kts 125°
2026-05-04 15:13 46.69080 47.08114 35956 ft 438 kts 125°
2026-05-04 15:14 46.65807 47.15587 35952 ft 438 kts 124°
2026-05-04 15:14 46.62561 47.23091 35942 ft 438 kts 124°
2026-05-04 15:15 46.59308 47.30578 35943 ft 438 kts 125°
2026-05-04 15:15 46.56057 47.37997 35943 ft 438 kts 125°
2026-05-04 15:16 46.51113 47.49239 35942 ft 438 kts 125°
2026-05-04 15:17 46.46177 47.60401 35927 ft 438 kts 125°
2026-05-04 15:17 46.41253 47.71513 35927 ft 439 kts 125°
2026-05-04 15:18 46.37942 47.78942 35925 ft 439 kts 125°
2026-05-04 15:19 46.32972 47.90070 35901 ft 439 kts 126°
2026-05-04 15:19 46.28291 48.01469 35901 ft 444 kts 114°
2026-05-04 15:20 46.26727 48.10148 35904 ft 448 kts 105°
2026-05-04 15:20 46.25391 48.18937 35892 ft 448 kts 105°
2026-05-04 15:21 46.24031 48.27742 35900 ft 449 kts 105°
2026-05-04 15:22 46.21990 48.40941 35904 ft 449 kts 106°
2026-05-04 15:22 46.18728 48.53339 35901 ft 437 kts 133°
2026-05-04 15:23 46.16564 48.56351 35904 ft 431 kts 147°
2026-05-04 15:23 46.13988 48.58494 35883 ft 426 kts 160°
2026-05-04 15:23 46.11166 48.59687 35882 ft 422 kts 173°
2026-05-04 15:23 46.08244 48.59939 35884 ft 421 kts 181°
2026-05-04 15:24 45.96497 48.59756 35890 ft 423 kts 181°
2026-05-04 15:25 45.91593 48.59681 35895 ft 424 kts 181°
2026-05-04 15:26 45.82742 48.59553 35900 ft 425 kts 181°
2026-05-04 15:26 45.73875 48.59423 35903 ft 425 kts 181°
2026-05-04 15:27 45.64989 48.59296 35911 ft 426 kts 181°
2026-05-04 15:28 45.56097 48.59172 35909 ft 426 kts 181°
2026-05-04 15:29 45.47204 48.59048 35907 ft 426 kts 181°
2026-05-04 15:30 45.26479 48.58743 35901 ft 426 kts 182°
2026-05-04 15:31 45.17592 48.58621 35898 ft 426 kts 182°
2026-05-04 15:32 45.02819 48.58421 35907 ft 426 kts 182°
2026-05-04 15:34 44.87991 48.58192 35914 ft 426 kts 182°
2026-05-04 15:34 44.79139 48.57539 35903 ft 423 kts 198°
2026-05-04 15:35 44.74017 48.53640 35905 ft 420 kts 213°
2026-05-04 15:35 44.71593 48.51353 35903 ft 420 kts 214°
2026-05-04 15:36 44.64319 48.44456 35900 ft 421 kts 214°
2026-05-04 15:36 44.59454 48.39877 35901 ft 421 kts 213°
2026-05-04 15:37 44.54583 48.35319 35904 ft 421 kts 213°
2026-05-04 15:37 44.49711 48.30746 35905 ft 421 kts 213°
2026-05-04 15:38 44.44839 48.26196 35903 ft 421 kts 214°
2026-05-04 15:38 44.39966 48.21652 35929 ft 421 kts 214°
2026-05-04 15:39 44.35088 48.17106 35927 ft 421 kts 214°
2026-05-04 15:40 44.27776 48.10315 35922 ft 421 kts 214°
2026-05-04 15:40 44.22898 48.05793 35930 ft 421 kts 214°
2026-05-04 15:41 44.18017 48.01282 35931 ft 421 kts 213°
2026-05-04 15:41 44.13136 47.96785 35925 ft 421 kts 213°
2026-05-04 15:42 44.08254 47.92292 35928 ft 421 kts 213°
2026-05-04 15:42 44.03366 47.87806 35921 ft 421 kts 214°
2026-05-04 15:43 43.98484 47.83327 35928 ft 421 kts 214°
2026-05-04 15:43 43.93602 47.78861 35923 ft 421 kts 214°
2026-05-04 15:44 43.88712 47.74396 35921 ft 420 kts 214°
2026-05-04 15:44 43.83830 47.69940 35929 ft 420 kts 214°
2026-05-04 15:45 43.78941 47.65483 35922 ft 421 kts 214°
2026-05-04 15:45 43.74081 47.61064 35920 ft 421 kts 213°
2026-05-04 15:46 43.69176 47.56634 35734 ft 421 kts 213°
2026-05-04 15:46 43.66734 47.54416 35497 ft 420 kts 216°
2026-05-04 15:46 43.64481 47.51863 35251 ft 419 kts 224°
2026-05-04 15:46 43.62549 47.48853 34988 ft 419 kts 233°
2026-05-04 15:47 43.60980 47.45480 34761 ft 419 kts 241°
2026-05-04 15:47 43.59802 47.41791 34539 ft 421 kts 249°
2026-05-04 15:47 43.58870 47.37969 34300 ft 421 kts 249°
2026-05-04 15:47 43.57936 47.34142 34074 ft 421 kts 249°
2026-05-04 15:48 43.57000 47.30329 33829 ft 420 kts 249°
2026-05-04 15:48 43.56059 47.26509 33448 ft 420 kts 249°
2026-05-04 15:48 43.54145 47.18806 31430 ft 429 kts 249°
2026-05-04 15:49 43.53178 47.14923 30837 ft 424 kts 249°
2026-05-04 15:49 43.52230 47.11107 30243 ft 420 kts 249°
2026-05-04 15:49 43.51291 47.07316 29575 ft 415 kts 249°
2026-05-04 15:49 43.50363 47.03577 28977 ft 409 kts 249°
2026-05-04 15:50 43.49445 46.99898 28380 ft 404 kts 249°
2026-05-04 15:50 43.48535 46.96267 27809 ft 399 kts 249°
2026-05-04 15:50 43.47630 46.92677 27197 ft 395 kts 249°
2026-05-04 15:50 43.46732 46.89123 26676 ft 390 kts 249°
2026-05-04 15:51 43.45849 46.85622 26160 ft 385 kts 249°
2026-05-04 15:51 43.44973 46.82156 25625 ft 382 kts 249°
2026-05-04 15:51 43.44109 46.78723 25114 ft 378 kts 249°
2026-05-04 15:51 43.43253 46.75316 24596 ft 374 kts 249°
2026-05-04 15:52 43.42418 46.72005 24116 ft 371 kts 249°
2026-05-04 15:52 43.41572 46.68659 23633 ft 368 kts 249°
2026-05-04 15:52 43.40732 46.65351 23124 ft 364 kts 249°
2026-05-04 15:52 43.39903 46.62085 22668 ft 359 kts 249°
2026-05-04 15:53 43.39085 46.58863 22218 ft 355 kts 249°
2026-05-04 15:53 43.38276 46.55677 21804 ft 351 kts 249°
2026-05-04 15:53 43.37475 46.52532 21379 ft 347 kts 249°
2026-05-04 15:53 43.36678 46.49412 20963 ft 344 kts 249°
2026-05-04 15:54 43.35888 46.46315 20544 ft 343 kts 249°
2026-05-04 15:54 43.35103 46.43235 20093 ft 341 kts 249°
2026-05-04 15:54 43.34314 46.40149 19684 ft 340 kts 249°
2026-05-04 15:54 43.33529 46.37097 19218 ft 339 kts 249°
2026-05-04 15:55 43.32742 46.34048 18794 ft 338 kts 249°
2026-05-04 15:55 43.31957 46.31010 18352 ft 337 kts 249°
2026-05-04 15:55 43.31176 46.27981 17889 ft 336 kts 248°
2026-05-04 15:55 43.30390 46.24943 17435 ft 335 kts 248°
2026-05-04 15:56 43.29612 46.21945 16975 ft 333 kts 248°
2026-05-04 15:56 43.28841 46.18960 16556 ft 331 kts 249°
2026-05-04 15:56 43.28100 46.15977 16125 ft 330 kts 253°
2026-05-04 15:56 43.27722 46.12865 15697 ft 332 kts 264°
2026-05-04 15:57 43.27828 46.09695 15249 ft 335 kts 276°
2026-05-04 15:57 43.28413 46.06642 14795 ft 338 kts 288°
2026-05-04 15:57 43.29302 46.03638 14338 ft 339 kts 289°
2026-05-04 15:57 43.30166 46.00632 13875 ft 339 kts 288°
2026-05-04 15:58 43.31027 45.97595 13368 ft 338 kts 288°
2026-05-04 15:58 43.31878 45.94583 12873 ft 338 kts 288°
2026-05-04 15:58 43.32728 45.91582 12417 ft 336 kts 288°
2026-05-04 15:58 43.33562 45.88640 11951 ft 335 kts 288°
2026-05-04 15:59 43.34417 45.85627 11487 ft 333 kts 288°
2026-05-04 15:59 43.35245 45.82712 11356 ft 322 kts 288°
2026-05-04 15:59 43.36044 45.79902 11230 ft 311 kts 288°
2026-05-04 15:59 43.36833 45.77190 11106 ft 301 kts 292°
2026-05-04 16:00 43.38008 45.74868 10925 ft 299 kts 314°
2026-05-04 16:00 43.39712 45.73262 10706 ft 305 kts 333°
2026-05-04 16:00 43.41793 45.72598 10311 ft 309 kts 356°
2026-05-04 16:00 43.43917 45.72478 9814 ft 304 kts 356°
2026-05-04 16:01 43.46016 45.72608 9176 ft 301 kts 15°
2026-05-04 16:01 43.47827 45.73903 8579 ft 294 kts 44°
2026-05-04 16:01 43.48943 45.76167 8035 ft 283 kts 72°
2026-05-04 16:01 43.49242 45.78785 7600 ft 274 kts 89°
2026-05-04 16:02 43.49333 45.81396 7481 ft 273 kts 89°
2026-05-04 16:02 43.49428 45.84018 7154 ft 274 kts 88°
2026-05-04 16:02 43.49620 45.89194 6494 ft 267 kts 90°
2026-05-04 16:03 43.49219 45.91635 5864 ft 263 kts 119°
2026-05-04 16:03 43.47988 45.93427 5330 ft 258 kts 149°
2026-05-04 16:03 43.46316 45.94154 4874 ft 251 kts 174°
2026-05-04 16:03 43.44600 45.94297 4443 ft 242 kts 176°
2026-05-04 16:04 43.42971 45.94411 4328 ft 229 kts 176°
2026-05-04 16:04 43.40074 45.93264 3867 ft 226 kts 234°
2026-05-04 16:04 43.39612 45.91266 3600 ft 225 kts 267°
2026-05-04 16:05 43.39565 45.89119 3330 ft 225 kts 268°
2026-05-04 16:05 43.39502 45.86964 3047 ft 225 kts 267°
2026-05-04 16:05 43.39343 45.82883 2474 ft 203 kts 267°
2026-05-04 16:06 43.39269 45.81049 2252 ft 182 kts 268°
2026-05-04 16:06 43.39100 45.76899 1609 ft 148 kts 268°
2026-05-04 16:07 43.39026 45.75070 1243 ft 142 kts 268°
2026-05-04 16:07 43.38861 45.71038 526 ft 136 kts 266°
2026-05-04 16:08 43.38816 45.69915 522 ft 96 kts 267°
2026-05-04 16:08 43.38759 45.68568 524 ft 14 kts 261°
2026-05-04 16:09 43.38734 45.68459 524 ft 4 kts 322°
2026-05-04 16:09 43.38758 45.68527 524 ft 9 kts 87°
2026-05-04 16:10 43.38773 45.68903 524 ft 28 kts 86°
2026-05-04 16:11 43.38802 45.69590 521 ft 25 kts 86°
2026-05-04 16:11 43.38814 45.69888 522 ft 15 kts 87°
2026-05-04 16:12 43.38705 45.69994 523 ft 6 kts 177°
2026-05-04 16:12 43.38660 45.70130 523 ft 8 kts 87°
2026-05-04 16:13 43.38574 45.70180 523 ft 6 kts 176°
2026-05-04 16:13 43.38556 45.70182 523 ft 0 kts 175°